Regional Weather Roundup
Issued by NWS Northern Indiana

Home | Current Version | Previous Version | Text Only | Print | Product List | Glossary Off
Versions: 1 2 3 4 5 6 7 8 9 10 11 12 13 14 15 16 17 18 19 20 21 22 23 24 25 26 27 28 29 30 31 32 33 34 35 36 37 38 39 40 41 42 43 44 45 46 47 48 49 50

000
ASUS43 KIWX 010710
RWRIWX

KIWX WEATHER ROUNDUP
NATIONAL WEATHER SERVICE NORTHERN INDIANA
300 AM EDT WED OCT 01 2014

NOTE: "FAIR" INDICATES FEW OR NO CLOUDS BELOW 12,000 FEET WITH NO
SIGNIFICANT WEATHER AND/OR OBSTRUCTIONS TO VISIBILITY.

* THESE STATIONS ARE NOT UNDER NWS QUALITY CONTROL. THEY ALSO MAY NOT
  REPORT WEATHER SUCH AS PRECIPITATION OR FOG.

INZ001>027-010800-
NORTHERN INDIANA

CITY           SKY/WX    TMP DP  RH WIND       PRES   REMARKS
GARY*          CLEAR     49  44  85 E3        30.02S
VALPARAISO     CLEAR     45  43  93 NE3       30.02S
MICHIGAN CITY* CLOUDY    46  46 100 CALM      30.02F
LAPORTE*       PTCLDY    46  46 100 E5        30.02F
KNOX*          CLEAR     42  40  93 CALM      30.01F
SOUTH BEND     NOT AVBL
MONTICELLO*    CLEAR     46  46  98 E3        30.01R
LOGANSPORT*    CLEAR     43  41  93 E3        30.02S
ROCHESTER*     PTCLDY    46  46 100 CALM      30.03R
WARSAW*        CLOUDY    54  46  76 E5        30.03S
ANGOLA*        CLOUDY    52  48  87 CALM      30.03F
FORT WAYNE     PTCLDY    50  48  93 E8        30.04R
HUNTINGTON*    MOCLDY    46  45  97 CALM      30.02S
PERU/GRISSOM   CLEAR     45  45 100 E3        30.01S
MARION*        CLEAR     42  41  97 CALM      30.02S

$$
INZ028>050-010800-
CENTRAL INDIANA

CITY           SKY/WX    TMP DP  RH WIND       PRES   REMARKS
LAFAYETTE      CLEAR     46  45  96 E6        30.01R
KOKOMO*        CLEAR     43  39  87 CALM      30.02S
MUNCIE*        CLEAR     43  42  97 CALM      30.02R FOG
INDIANAPOLIS   CLEAR     51  46  83 E7        30.00R

$$
MIZ043>046-050>051-056>058-064>065-071>073-077>080-010800-
SOUTHWEST LOWER MICHIGAN

CITY           SKY/WX    TMP DP  RH WIND       PRES   REMARKS
BATTLE CREEK   CLOUDY    53  46  77 CALM      30.05S
COLDWATER*     CLOUDY    53  50  89 CALM      30.04S
HILLSDALE*     CLOUDY    51  51  99 CALM      30.03F
GRAND RAPIDS   CLOUDY    53  50  89 CALM      30.06R
KALAMAZOO      CLOUDY    53  48  83 VRB5      30.05S
STURGIS*       CLOUDY    54  48  82 CALM      30.03S
THREE RIVERS*  CLOUDY    54  50  87 E6        30.04S

$$
OHZ001>008-015>018-024>025-010800-
NORTHWEST OHIO

CITY           SKY/WX    TMP DP  RH WIND       PRES   REMARKS
WAUSEON*       CLOUDY    45  45 100 CALM      30.04S FOG
DEFIANCE       CLOUDY    52  48  86 NE5       30.04F
FINDLAY        CLOUDY    54  50  86 N6        30.01F
TOLEDO EXPRESS CLOUDY    49  47  93 CALM      30.03S
TOLEDO METCALF CLOUDY    51  48  89 CALM      30.04S
LIMA           CLOUDY    52  49  89 N3        30.02S

$$
AND FOR LAKE MICHIGAN COASTAL AND OPEN LAKE BUOY OBSERVATIONS

STATION/POSITION TEMP    WIND        PRES    VSBY  WAVE
                 AIR SEA DIR/SP/G                  HT/PER
                 (F)     (DEG/KT/KT) (MB)    (MI)  (FT/S)
CALUMET HARBOR    55     110/  8/ 10 1015.3S
MICHIGAN CITY     53      60/  7/  9   N/A
SAINT JOSEPH      54      CALM  /  2 1017.6R
SOUTH LAKE BUOY   57 62  130/ 10/ 14 1017.0F         2/ 6
4 MI NW BRIDGMAN  56 62   50/  8/ 10   N/A           2/ 2
MICHIGAN CITY     56 64  100/ 12/ 14   N/A           2/ 2

$$
&&


USA.gov is the U.S. government's official web portal to all federal, state and local government web resources and services.